Temp
63 63 63 63 63 63 63 63 63 63 62 63 63 63 63 63 63 59 61 70 68 70 69 66 65 63 63 60 60 57 49 45 50 49 55 59 58 61 61 62 61 63 63 64 55
62 62 63 63 63 63 63 63 63 62 62 62 62 63 63 62 58 59 70 72 71 70 66 64 61 61 58 57 57 54 47 50 54 54 56 58 58 60 60 60 59 61 62 56 54
62 62 62 62 62 63 63 63 63 62 62 62 62 62 62 59 60 65 72 72 70 70 66 64 63 61 55 55 55 52 50 52 56 57 56 56 55 60 57 56 60 61 66 57 54
61 61 61 61 62 62 63 63 63 62 62 61 61 62 62 57 55 63 69 71 70 67 66 62 60 56 53 52 55 50 54 53 57 56 55 55 56 56 58 66 65 64 66 59 55
60 60 60 61 61 62 62 63 62 62 62 61 61 62 59 55 62 62 67 67 65 65 64 60 57 55 52 51 52 50 51 55 55 55 54 54 54 55 57 65 62 60 59 60 58
60 60 60 60 60 61 62 62 62 62 61 61 61 61 57 52 63 63 62 63 62 62 60 61 59 58 54 53 53 52 52 53 54 55 54 53 56 53 58 59 60 57 59 57 57
60 60 60 60 60 61 61 62 62 61 61 62 61 59 54 60 62 61 63 60 61 62 59 58 60 58 55 51 54 51 50 51 51 51 52 51 51 48 61 57 58 58 57 56 57
60 60 60 60 60 61 61 61 61 62 61 61 61 54 56 61 59 61 61 59 60 61 61 60 60 57 54 54 52 47 45 43 51 49 52 54 49 59 60 55 59 59 60 57 58
60 59 60 60 60 60 60 61 61 62 62 61 54 53 55 61 58 60 59 59 59 59 60 64 59 52 51 46 43 42 39 40 45 51 50 49 46 55 56 55 57 62 63 63 64
60 59 60 60 60 60 60 61 62 61 59 60 61 51 57 56 58 59 58 60 57 56 55 54 49 45 42 43 37 40 37 39 40 51 45 45 44 51 57 52 57 60 62 62 62
60 60 60 60 60 61 57 55 55 52 52 55 54 54 55 56 58 56 58 58 56 53 46 46 43 41 47 45 44 42 40 39 44 52 44 46 47 52 56 56 56 59 61 61 61
60 60 60 60 60 61 54 51 47 48 45 53 52 53 54 55 52 53 59 54 50 46 45 42 39 48 47 44 43 41 39 40 44 48 43 43 45 52 55 56 58 58 59 60 59
59 59 60 60 60 56 50 50 51 51 41 48 50 49 51 56 51 52 56 50 47 42 43 42 46 48 46 43 41 38 38 40 40 42 42 39 40 43 50 50 53 57 58 57 57
59 59 60 60 56 50 49 52 51 50 37 43 46 49 51 50 45 51 52 50 44 43 42 41 45 45 41 42 42 37 43 43 40 36 34 42 33 41 51 54 56 55 54 56 56
58 59 59 60 56 54 56 52 50 48 30 46 45 54 50 47 46 48 50 48 42 42 42 43 41 40 39 43 44 42 42 40 38 35 32 33 30 40 44 46 51 53 56 57 54
58 58 58 57 56 56 56 55 53 40 32 42 45 44 43 45 44 45 46 49 45 42 39 42 42 44 45 43 44 43 40 37 33 32 27 35 34 39 41 46 48 52 55 57 55
56 57 57 59 55 55 54 53 41 34 45 40 40 42 41 41 42 41 40 38 40 34 33 38 40 42 44 40 40 40 36 30 27 25 30 35 32 42 47 51 50 53 54 57 52
56 57 55 57 56 55 54 46 32 40 42 46 44 42 41 45 43 39 37 37 40 37 34 34 35 41 43 45 43 37 39 33 24 28 35 31 33 46 49 51 53 50 50 50 51
56 55 54 55 56 55 48 37 39 39 46 45 44 40 40 44 46 42 40 40 44 44 39 32 33 41 41 43 46 36 35 43 35 21 23 37 38 50 54 50 48 48 47 49 51
50 50 50 56 56 52 45 40 41 46 48 47 38 40 32 38 40 38 38 38 40 44 47 43 35 41 39 40 38 40 42 32 30 23 25 34 36 40 48 48 47 46 46 44 43
47 43 49 55 55 47 38 40 42 49 51 45 42 38 37 36 41 41 41 41 42 41 42 42 40 37 38 36 36 35 34 35 35 34 28 26 34 51 48 45 38 37 38 39 39
44 37 48 54 43 43 37 42 45 42 46 46 44 43 40 41 41 40 39 42 44 44 38 43 36 30 35 39 43 42 40 39 33 28 32 33 33 52 40 44 42 40 39 39 39
39 39 48 51 35 37 39 40 41 39 42 42 41 43 42 39 36 41 41 41 43 42 40 40 33 27 28 32 33 34 36 34 34 31 28 25 31 43 45 46 38 33 36 37 37
38 32 39 44 44 39 38 38 38 43 43 44 43 44 40 38 41 38 37 40 40 41 42 42 34 32 28 31 31 30 32 32 30 24 25 26 28 37 42 31 32 34 36 36 36
36 31 36 32 35 37 40 38 35 34 42 43 39 39 38 34 35 36 36 34 38 38 37 34 27 31 32 30 31 28 27 29 26 28 23 28 29 36 28 28 31 35 36 34 34
32 31 35 32 35 32 36 33 35 37 38 36 36 37 36 32 33 29 29 29 28 30 28 29 22 25 22 30 29 26 29 30 30 30 29 30 28 28 31 32 31 34 34 32 34
32 35 31 28 28 27 29 31 29 31 31 33 31 30 29 30 31 31 33 32 31 28 27 27 22 18 17 26 22 13 25 30 30 23 24 21 20 24 26 30 31 31 32 31 33
MSLP
1020.25 1020.11 1019.95 1019.82 1019.64 1019.41 1019.19 1018.96 1018.83 1018.65 1018.41 1018.15 1017.87 1017.61 1017.43 1017.15 1016.79 1016.90 1016.38 1014.80 1014.76 1015.12 1015.50 1016.09 1016.34 1016.59 1016.84 1017.58 1018.08 1018.70 1019.50 1019.77 1018.96 1018.57 1017.06 1016.35 1016.14 1015.68 1015.47 1015.68 1015.82 1015.58 1015.53 1015.43 1016.18
1020.28 1020.15 1019.99 1019.79 1019.65 1019.44 1019.19 1018.94 1018.75 1018.57 1018.36 1018.12 1017.87 1017.53 1017.27 1017.07 1016.86 1016.11 1014.50 1014.41 1014.63 1014.94 1015.56 1016.09 1016.66 1016.88 1017.51 1017.99 1018.34 1018.75 1019.44 1018.58 1017.42 1017.09 1016.52 1016.04 1015.91 1015.57 1015.57 1015.43 1015.46 1015.25 1015.02 1015.47 1016.14
1020.31 1020.17 1019.99 1019.82 1019.51 1019.28 1019.05 1018.78 1018.56 1018.39 1018.21 1017.98 1017.70 1017.35 1017.06 1016.90 1016.52 1014.63 1014.03 1014.26 1014.53 1014.83 1015.25 1015.89 1016.49 1016.94 1017.70 1018.10 1018.38 1018.64 1018.48 1017.53 1016.88 1016.66 1016.43 1016.11 1015.79 1015.40 1015.37 1014.82 1014.31 1014.29 1014.34 1014.95 1015.57
1020.14 1020.06 1019.94 1019.75 1019.48 1019.18 1018.92 1018.62 1018.34 1018.09 1017.92 1017.74 1017.47 1017.05 1016.79 1016.74 1016.00 1014.23 1013.98 1014.11 1014.58 1014.94 1015.39 1016.12 1016.71 1017.24 1017.83 1018.20 1018.12 1018.72 1017.62 1017.56 1016.90 1016.50 1016.42 1016.16 1015.62 1015.46 1015.28 1013.04 1012.85 1013.30 1013.59 1014.18 1014.80
1020.03 1019.91 1019.78 1019.58 1019.36 1019.04 1018.69 1018.35 1018.03 1017.81 1017.63 1017.45 1017.27 1016.94 1016.63 1016.54 1015.34 1014.50 1014.40 1014.53 1014.79 1015.04 1015.55 1016.19 1016.77 1017.29 1017.80 1017.95 1018.16 1018.28 1017.56 1017.24 1016.82 1016.76 1016.44 1016.19 1015.40 1015.49 1014.45 1012.58 1012.88 1013.28 1013.65 1013.63 1013.86
1019.94 1019.78 1019.62 1019.39 1019.11 1018.82 1018.48 1018.08 1017.67 1017.34 1017.19 1017.11 1017.03 1017.04 1016.85 1016.27 1014.45 1014.56 1014.75 1014.97 1015.06 1015.33 1015.75 1015.96 1016.30 1016.63 1017.27 1017.61 1017.95 1017.55 1017.45 1017.14 1016.82 1016.47 1016.21 1016.01 1015.16 1015.41 1013.00 1012.38 1012.40 1012.89 1012.75 1012.86 1013.00
1019.82 1019.66 1019.46 1019.19 1018.85 1018.45 1018.13 1017.79 1017.38 1016.91 1016.60 1016.62 1016.85 1016.98 1016.73 1014.90 1014.43 1014.73 1014.78 1015.10 1015.22 1015.39 1015.92 1016.10 1016.16 1016.56 1016.97 1017.31 1017.27 1017.41 1017.52 1016.88 1016.14 1015.91 1015.91 1015.58 1015.36 1014.46 1012.47 1012.58 1012.32 1012.19 1012.15 1012.06 1011.93
1019.74 1019.50 1019.25 1019.02 1018.62 1018.10 1017.65 1017.40 1017.11 1016.73 1016.36 1016.35 1016.62 1016.79 1016.06 1014.64 1014.75 1014.91 1014.94 1015.43 1015.49 1015.48 1015.65 1015.91 1016.24 1016.75 1017.12 1017.27 1017.51 1017.84 1017.90 1017.40 1015.67 1015.90 1015.34 1015.56 1014.12 1013.07 1012.47 1012.62 1012.14 1011.43 1011.08 1010.91 1010.52
1019.60 1019.40 1019.10 1018.72 1018.35 1017.88 1017.28 1016.93 1016.87 1016.80 1016.52 1016.56 1016.69 1016.63 1015.67 1014.87 1014.89 1014.95 1014.97 1015.38 1015.67 1015.90 1016.06 1016.11 1016.47 1017.52 1017.82 1018.27 1018.64 1018.58 1018.12 1017.61 1016.66 1015.26 1015.51 1015.68 1014.37 1013.04 1012.72 1012.63 1011.78 1010.85 1010.30 1010.03 1009.29
1019.32 1019.20 1018.98 1018.66 1018.20 1017.65 1017.02 1016.65 1016.63 1016.91 1016.99 1016.79 1016.63 1016.91 1015.08 1014.75 1014.80 1015.00 1015.14 1015.38 1015.78 1016.20 1016.58 1016.83 1017.53 1018.10 1018.93 1018.96 1018.76 1018.38 1018.44 1017.78 1017.22 1015.68 1015.68 1015.48 1014.49 1013.65 1012.26 1012.73 1010.96 1009.90 1009.13 1009.22 1008.97
1019.10 1019.06 1018.94 1018.56 1018.08 1017.48 1017.01 1016.87 1017.34 1017.48 1017.25 1016.64 1016.24 1015.77 1015.18 1014.85 1014.79 1015.08 1015.09 1015.44 1015.91 1016.58 1017.25 1017.70 1018.37 1018.15 1017.51 1017.77 1017.83 1017.98 1018.06 1017.85 1016.66 1015.69 1015.65 1014.97 1014.02 1013.18 1012.08 1011.31 1009.93 1008.68 1008.62 1008.16 1008.76
1018.84 1018.79 1018.78 1018.54 1018.09 1017.47 1017.48 1018.25 1018.81 1019.21 1018.09 1016.17 1015.78 1015.62 1015.08 1015.04 1015.16 1015.23 1015.22 1015.69 1016.22 1016.93 1017.70 1018.51 1018.20 1017.17 1017.33 1017.72 1018.10 1018.31 1018.46 1017.80 1016.72 1015.52 1015.98 1014.60 1013.10 1012.14 1011.17 1009.83 1008.90 1008.70 1008.08 1008.47 1008.21
1018.44 1018.50 1018.45 1018.33 1018.05 1018.00 1018.41 1018.71 1018.86 1019.09 1019.03 1016.45 1015.72 1015.47 1015.12 1015.13 1015.22 1015.35 1015.55 1015.82 1016.33 1017.28 1017.64 1017.76 1017.08 1016.86 1017.28 1017.63 1018.08 1018.46 1018.39 1017.63 1017.21 1016.55 1015.87 1014.96 1012.23 1011.23 1009.87 1009.07 1008.23 1007.96 1008.72 1008.41 1008.23
1018.19 1018.27 1018.18 1018.13 1018.39 1018.57 1018.74 1018.70 1018.93 1019.11 1018.78 1016.65 1015.73 1015.26 1015.20 1015.23 1015.60 1015.55 1015.49 1015.92 1016.53 1016.96 1017.60 1017.55 1016.98 1017.09 1017.29 1017.46 1017.59 1018.16 1016.86 1017.14 1017.46 1017.87 1017.27 1015.89 1012.05 1010.86 1009.50 1008.82 1007.94 1007.47 1008.35 1008.08 1008.32
1017.72 1017.88 1017.89 1018.07 1018.42 1018.48 1018.50 1018.86 1019.04 1019.27 1018.34 1016.27 1015.59 1015.05 1015.06 1015.51 1015.90 1016.08 1015.91 1015.79 1016.46 1017.01 1017.70 1016.92 1016.72 1016.92 1017.06 1016.56 1016.59 1016.69 1016.66 1017.27 1017.53 1017.90 1017.71 1016.62 1015.34 1010.22 1009.40 1008.52 1007.50 1007.98 1008.36 1007.94 1007.88
1017.10 1017.60 1017.83 1018.12 1018.28 1018.29 1018.50 1018.87 1019.31 1019.07 1017.26 1015.91 1015.61 1015.60 1015.49 1015.62 1015.99 1016.26 1016.20 1016.13 1016.62 1017.00 1017.23 1016.93 1016.76 1016.49 1015.87 1015.95 1016.37 1016.57 1016.99 1017.59 1018.15 1018.14 1017.42 1015.48 1014.62 1010.21 1009.00 1008.24 1008.10 1008.02 1008.30 1007.86 1008.32
1017.14 1017.34 1017.56 1017.66 1017.91 1017.88 1018.43 1018.89 1019.24 1017.92 1016.25 1016.23 1015.87 1016.00 1016.01 1016.05 1016.18 1016.53 1016.76 1016.88 1017.18 1017.49 1017.41 1016.93 1016.21 1015.52 1015.45 1016.12 1016.45 1016.88 1017.69 1018.08 1018.03 1018.00 1016.55 1015.04 1013.91 1009.33 1008.70 1008.32 1008.32 1008.84 1008.61 1008.52 1008.77
1017.41 1017.40 1017.67 1017.55 1017.66 1017.94 1018.44 1019.22 1018.54 1017.20 1016.53 1015.97 1015.71 1016.05 1016.25 1016.07 1016.31 1017.00 1017.17 1017.17 1016.76 1017.28 1017.45 1017.11 1015.79 1015.33 1015.41 1015.45 1015.69 1016.41 1016.87 1017.24 1017.15 1017.02 1015.58 1014.93 1011.16 1006.54 1007.73 1008.15 1008.52 1009.34 1009.08 1009.32 1009.29
1017.56 1017.81 1017.53 1017.34 1017.84 1017.90 1018.46 1018.11 1016.69 1016.76 1016.25 1015.94 1016.08 1016.00 1015.87 1015.80 1016.09 1016.62 1016.65 1016.31 1015.86 1016.22 1016.58 1016.09 1014.99 1014.63 1014.76 1014.65 1014.78 1015.74 1015.84 1014.86 1015.75 1016.55 1015.56 1012.59 1009.68 1006.10 1006.95 1008.18 1008.86 1009.21 1009.58 1010.13 1010.63
1018.38 1018.27 1017.71 1017.17 1017.35 1017.76 1017.95 1016.73 1015.90 1015.73 1015.67 1015.66 1015.84 1016.13 1016.32 1016.65 1016.97 1017.18 1016.56 1015.76 1015.56 1015.36 1015.24 1015.42 1014.33 1013.76 1014.06 1014.53 1014.83 1015.03 1014.60 1015.36 1015.86 1015.86 1014.37 1011.89 1010.47 1007.54 1007.78 1008.83 1009.82 1011.21 1011.95 1012.39 1013.01
1018.58 1018.69 1018.12 1017.55 1017.49 1017.62 1017.21 1016.44 1015.95 1015.41 1015.62 1016.16 1016.12 1016.35 1016.34 1016.69 1016.91 1016.86 1016.17 1015.69 1015.46 1015.91 1016.17 1015.91 1015.65 1013.82 1014.36 1014.79 1014.95 1015.45 1015.25 1015.62 1015.61 1014.94 1013.84 1012.00 1009.65 1008.25 1009.34 1011.13 1012.47 1013.40 1013.70 1014.07 1014.29
1018.35 1018.94 1017.97 1017.69 1018.00 1017.18 1016.79 1016.35 1016.30 1016.03 1015.87 1016.04 1016.05 1016.21 1016.28 1016.58 1016.46 1016.36 1016.15 1016.30 1016.00 1016.37 1016.79 1016.51 1016.14 1015.84 1014.23 1013.79 1014.43 1014.67 1015.24 1015.55 1015.09 1014.17 1013.36 1011.81 1009.70 1009.85 1011.03 1011.97 1013.03 1014.23 1014.51 1014.86 1015.29
1018.48 1018.76 1017.86 1017.69 1017.68 1017.21 1016.83 1016.73 1016.66 1016.43 1016.62 1016.51 1016.49 1016.13 1015.85 1016.57 1016.99 1016.20 1016.31 1016.38 1016.09 1016.64 1016.69 1016.78 1016.77 1016.61 1015.22 1014.86 1014.81 1015.34 1015.56 1015.76 1015.35 1015.05 1013.41 1012.98 1011.32 1011.54 1011.41 1012.33 1013.36 1014.62 1015.29 1015.52 1015.78
1019.19 1019.24 1019.12 1017.62 1017.28 1017.57 1017.21 1016.69 1017.38 1016.48 1016.56 1016.45 1016.31 1016.74 1016.73 1016.63 1017.03 1017.10 1017.31 1017.56 1017.53 1017.48 1017.84 1017.59 1017.21 1017.43 1016.77 1016.33 1016.94 1016.68 1016.75 1017.05 1017.29 1016.37 1014.99 1014.11 1013.55 1013.84 1014.12 1015.02 1015.45 1015.68 1015.89 1016.02 1016.03
1019.64 1019.42 1019.63 1018.51 1018.12 1017.89 1018.22 1017.30 1017.66 1017.61 1016.90 1016.67 1017.05 1017.06 1017.85 1017.72 1017.58 1017.92 1018.43 1018.71 1018.60 1018.67 1019.00 1019.27 1018.43 1018.47 1017.64 1018.10 1018.07 1017.80 1018.00 1017.37 1017.16 1016.69 1016.30 1014.95 1014.80 1015.00 1016.11 1016.77 1017.05 1016.94 1016.41 1016.04 1015.66
1020.46 1020.41 1020.13 1019.51 1018.99 1019.37 1018.98 1018.26 1017.98 1018.07 1018.35 1017.84 1018.36 1018.44 1018.99 1019.25 1019.42 1019.55 1020.18 1020.49 1020.71 1020.42 1021.07 1021.02 1020.31 1020.16 1019.93 1019.23 1019.07 1018.07 1017.19 1016.92 1016.62 1016.37 1016.13 1015.98 1016.12 1017.67 1017.79 1017.44 1017.39 1016.89 1016.31 1016.29 1016.19
1020.74 1020.54 1020.16 1020.54 1020.25 1020.23 1019.51 1019.05 1019.38 1019.21 1020.01 1019.90 1020.09 1020.12 1020.33 1020.89 1021.35 1021.49 1022.05 1021.79 1021.85 1021.94 1021.73 1021.89 1022.02 1022.25 1021.55 1020.94 1020.44 1018.89 1016.51 1016.10 1016.15 1016.76 1016.94 1017.26 1018.31 1017.85 1017.79 1017.67 1017.27 1016.88 1016.41 1016.19 1016.28
Wind_Speed
12 12 12 13 13 12 12 12 12 11 11 10 11 11 11 10 7 2 6 7 4 13 7 6 4 3 3 4 3 3 4 3 6 6 5 3 3 3 1 1 3 7 5 2 3
10 11 11 12 13 13 13 13 12 11 10 10 11 11 11 9 1 5 7 5 10 12 6 6 4 3 3 2 1 4 4 9 6 5 5 3 5 3 2 5 5 5 7 4 5
8 9 10 11 12 13 13 13 13 12 11 10 10 11 10 4 4 5 1 8 12 6 6 4 6 4 2 1 3 4 7 5 5 6 3 4 3 4 4 8 11 10 8 6 6
6 7 9 10 11 12 13 13 13 11 11 10 10 11 10 1 6 1 1 10 11 8 6 7 5 4 3 4 3 3 9 4 4 3 2 4 2 3 7 20 7 12 7 5 9
5 6 7 9 11 13 14 14 14 12 10 9 9 10 1 2 10 2 7 9 6 5 7 6 5 5 4 5 3 5 4 4 6 8 8 3 12 6 13 22 7 7 8 11 10
6 7 8 9 11 14 15 16 16 13 11 8 7 8 3 4 1 5 8 6 4 5 5 7 8 7 5 4 6 3 4 7 7 10 8 7 9 7 14 9 11 6 12 11 12
5 7 8 9 11 13 15 16 17 16 11 7 4 2 3 14 4 5 5 2 5 5 5 3 5 5 5 2 2 3 7 8 8 3 9 7 8 11 16 5 12 9 10 10 12
6 7 8 10 12 14 15 16 16 10 5 6 5 1 8 2 4 4 3 4 3 2 2 3 5 3 1 0 6 3 0 5 2 5 3 5 12 11 9 4 11 12 11 10 14
7 8 8 9 12 15 16 14 5 6 7 9 4 4 9 4 0 1 2 5 4 3 5 4 4 2 5 4 5 4 5 6 11 10 3 6 7 7 6 4 15 20 20 17 18
7 7 8 10 12 14 18 3 2 1 1 2 2 3 2 1 3 3 2 5 4 5 4 5 5 3 3 4 6 7 5 6 6 6 4 6 14 14 21 7 24 24 22 18 18
7 8 9 10 12 14 8 3 5 3 4 5 4 4 4 1 1 2 2 4 4 5 5 2 4 8 15 12 2 2 4 6 10 14 5 13 17 17 19 18 23 25 19 18 12
7 6 8 9 11 11 3 6 2 2 9 7 7 6 2 2 2 1 4 6 4 5 5 4 7 14 2 3 7 5 5 13 6 10 4 11 19 21 21 24 22 18 19 13 10
7 5 7 8 10 4 3 4 5 5 2 9 3 3 2 5 6 5 7 4 4 6 8 9 6 4 6 4 6 4 7 9 10 9 5 8 8 4 6 7 7 14 8 11 13
8 5 5 8 2 0 1 4 4 2 2 7 1 1 1 1 0 1 2 2 1 8 6 6 3 5 4 8 8 6 8 12 7 3 4 6 14 4 7 9 10 4 4 11 6
4 5 5 1 1 1 1 4 5 1 6 2 1 1 1 3 2 4 2 2 5 5 6 7 6 4 4 9 7 10 2 2 2 3 4 4 4 3 5 8 8 5 7 10 3
6 3 8 3 2 0 4 2 2 4 8 3 3 4 2 3 2 2 2 4 2 4 1 7 3 5 8 1 4 3 1 5 3 1 2 9 6 1 4 5 1 3 5 9 8
7 4 7 2 2 6 4 1 2 4 4 3 2 2 3 3 2 1 1 1 3 0 2 4 6 3 3 2 3 3 5 5 5 2 7 3 6 5 3 8 1 12 11 9 5
5 5 1 0 5 6 2 3 6 3 4 3 4 3 3 3 2 1 2 3 6 4 2 6 8 9 5 9 10 8 9 6 6 12 18 5 15 12 9 4 8 6 9 6 7
2 0 2 4 4 2 3 6 6 6 4 3 0 6 6 5 7 5 10 10 9 13 8 5 10 4 5 6 10 5 7 5 4 2 2 11 15 27 17 5 4 4 3 7 9
1 2 3 3 8 2 4 7 5 7 4 1 7 7 4 2 2 3 5 2 3 8 1 4 17 9 2 3 2 4 1 3 2 4 21 14 15 22 17 10 5 15 19 23 21
2 1 3 3 3 2 6 5 3 4 2 4 4 8 6 4 8 14 9 3 3 4 2 2 6 10 2 6 7 1 3 3 2 8 17 17 16 16 13 10 12 9 9 9 12
4 2 3 3 3 3 6 4 2 3 2 6 4 9 13 10 10 8 5 5 4 5 4 4 4 10 15 5 6 6 10 10 12 10 11 16 18 13 11 12 2 4 9 7 7
4 2 2 2 5 7 2 3 1 3 7 5 6 5 2 8 11 12 11 4 2 3 5 5 2 6 12 4 5 2 2 3 5 5 17 15 9 12 21 24 17 14 10 8 11
2 2 3 2 2 3 4 9 9 6 8 9 10 7 10 13 11 9 4 3 0 2 4 2 5 12 14 11 4 4 1 6 7 5 7 10 18 25 23 10 16 18 11 8 9
1 2 3 4 4 6 8 6 6 6 4 1 2 6 6 5 5 6 3 4 3 7 4 2 7 9 11 6 4 8 14 19 17 19 13 23 24 19 4 8 9 12 11 11 13
3 3 1 1 2 3 7 4 13 13 5 8 10 9 4 8 5 9 2 1 1 5 3 2 2 4 7 14 9 14 17 20 23 24 20 21 18 5 4 7 7 10 9 8 11
1 3 4 3 2 4 4 1 4 2 4 5 5 2 1 3 3 2 5 5 6 4 4 3 3 1 10 13 8 10 18 20 10 1 1 5 1 4 5 9 8 8 11 8 9
Wind_Direction
28 28 27 24 20 19 15 11 5 360 354 347 343 340 340 334 316 151 237 215 179 156 90 112 51 63 57 84 82 133 72 223 243 174 237 203 231 184 181 239 215 205 207 224 125
26 22 20 18 14 10 7 3 358 353 350 343 338 333 336 336 258 232 249 177 141 147 106 136 138 102 49 66 38 104 146 221 209 195 225 243 200 227 214 232 245 267 249 162 157
16 15 13 8 4 358 355 351 348 346 343 337 331 325 327 321 339 241 82 181 161 145 117 100 106 101 136 89 205 173 210 211 258 232 259 251 264 217 192 262 216 209 236 190 194
11 7 2 357 351 347 342 338 335 336 333 330 327 321 321 275 297 91 333 155 146 122 100 105 98 119 168 209 181 245 254 205 280 232 270 243 278 232 202 256 225 215 230 169 208
358 354 349 343 341 336 333 331 326 320 315 316 318 319 313 17 250 64 79 118 116 114 139 133 137 141 191 198 150 221 254 242 248 281 264 304 252 218 251 262 275 244 243 243 234
340 344 339 336 332 329 327 325 321 313 305 295 297 310 107 250 109 129 123 125 128 112 149 136 184 193 187 206 177 222 261 265 271 248 249 213 276 129 247 276 282 234 253 246 242
323 335 336 332 327 324 321 323 321 313 295 251 243 258 137 240 115 138 130 139 157 138 147 220 155 149 142 240 248 312 315 312 222 255 233 163 283 228 255 275 284 276 260 262 250
314 327 332 329 325 320 322 323 324 325 347 164 166 147 244 64 127 119 117 62 70 99 125 132 132 96 199 110 9 3 33 323 268 151 273 174 263 270 285 233 276 283 280 263 253
306 319 324 325 322 318 320 321 326 15 83 129 98 129 264 133 86 99 143 143 102 58 49 90 93 102 33 88 2 342 243 223 311 199 126 190 264 279 294 317 287 287 283 280 281
285 300 315 324 323 323 322 312 196 28 87 266 66 49 261 269 124 110 38 120 119 114 56 61 58 93 45 111 224 234 233 250 245 286 180 252 257 277 284 266 275 279 275 275 278
281 299 315 322 324 333 350 26 17 341 28 224 217 244 280 51 136 62 146 101 95 71 156 37 113 197 221 205 176 229 231 250 257 266 298 257 268 268 270 270 266 268 286 275 285
270 288 310 321 328 335 58 79 121 159 304 259 252 276 307 336 1 160 130 147 152 171 113 52 215 226 151 164 229 261 286 275 292 277 178 280 284 266 260 260 267 272 271 299 290
258 269 300 317 330 25 42 125 129 115 221 290 224 207 260 143 215 234 166 143 156 145 191 184 225 162 173 226 239 199 224 259 251 331 263 306 270 246 270 256 286 263 277 277 267
259 261 275 310 50 240 16 160 140 136 359 277 283 340 63 100 121 302 163 143 74 205 169 226 279 197 162 230 159 259 228 249 278 17 269 31 293 200 228 262 264 346 307 281 312
239 238 199 84 132 135 187 143 136 75 310 305 10 255 168 141 145 7 325 46 173 179 128 258 160 170 181 220 153 227 70 172 169 207 346 324 294 267 229 247 269 337 305 295 309
94 220 146 122 127 27 99 110 274 71 245 351 23 344 23 37 42 26 57 51 90 150 325 251 293 198 212 193 200 113 71 49 60 88 290 221 194 92 163 205 176 223 284 307 6
75 127 167 157 211 143 108 66 342 212 12 341 30 21 18 21 355 84 104 219 184 355 277 281 225 233 154 106 39 109 64 307 326 6 240 226 234 208 248 252 295 297 303 289 336
40 123 216 13 143 133 99 82 219 206 263 229 178 163 183 141 97 17 114 243 218 178 187 268 293 166 174 193 199 181 177 171 245 277 283 155 261 272 197 219 251 320 277 311 291
0 330 159 183 165 142 131 212 202 186 207 208 287 262 261 222 193 188 206 244 212 181 198 191 244 237 188 186 162 186 188 204 242 89 306 249 271 281 244 328 59 22 46 318 306
41 335 252 164 146 209 213 233 207 192 164 264 191 190 188 130 217 202 226 220 224 188 13 271 290 205 181 95 298 187 199 60 13 217 248 264 268 264 304 324 6 23 16 11 16
67 29 293 178 133 151 248 234 207 196 140 201 226 261 216 211 242 266 255 240 192 76 248 260 219 266 11 183 191 41 276 248 286 226 252 258 258 276 300 32 64 55 54 17 4
136 208 271 203 190 198 229 223 63 213 161 258 273 250 262 264 260 241 253 261 82 109 290 260 191 261 244 233 222 214 233 229 238 247 242 252 253 302 17 346 8 73 41 34 31
158 239 299 236 213 216 236 255 238 172 200 215 248 224 192 268 274 250 237 16 63 171 211 167 255 294 305 31 31 133 75 360 333 247 246 262 267 340 325 322 352 18 32 43 33
126 167 284 231 253 259 223 251 250 205 223 206 245 259 278 266 248 270 239 180 261 54 71 208 198 239 258 277 36 261 272 295 285 268 290 263 294 294 301 355 351 350 360 17 19
7 217 270 181 245 256 232 263 272 275 226 112 305 235 258 274 286 250 299 358 68 13 61 21 260 268 260 279 306 276 266 265 258 260 264 284 281 290 22 1 332 324 334 341 349
166 178 26 57 164 129 194 247 253 270 298 274 265 299 241 254 279 295 26 204 316 22 18 351 281 351 298 300 289 291 283 272 273 274 270 263 267 31 301 284 286 311 314 310 327
278 346 97 293 158 137 229 157 95 73 103 78 82 14 20 87 58 278 243 226 221 244 232 198 219 241 265 294 319 289 261 263 261 183 274 281 119 256 307 311 295 301 303 273 295